Powrót do katalogu

FREGAT DEB

LostHEO
NORAD 46094·DEBRIS·🇷🇺 Russia

Wystrzelony Jul 18, 2011 z Baikonur Cosmodrome

Loading…

Następne Przeloty (najbliższe 24 godziny)

TLE

NieaktualneSource: Space-Track

Epoka: Aug 10, 2020, 09:26 UTC

1 46094U 11037JD  20223.39331060 -.00043330 +00000-0 -49624-1 0  9990
2 46094 051.1186 296.1247 2847810 097.1293 295.8016 09.05586143000551

Śledź FREGAT DEB w czasie rzeczywistym z AllMySat

Download on the App Store